Weather History for Boulder City, NV

Change the Weather History Date:

Friday, November 9, 2012

  Actual Average (KLAS) Record (KLAS)
Temperature  
Mean Temperature 55 °F 59 °F  
Max Temperature 66 °F 70 °F 82 °F (1978)
Min Temperature 44 °F 49 °F 26 °F (1945)
Degree Days  
Heating Degree Days 10 6  
Month to date heating degree days 45  
Since 1 July heating degree days 84  
Cooling Degree Days 0 1  
Month to date cooling degree days 10  
Year to date cooling degree days 3566  
Growing Degree Days 5 (Base 50)    
Moisture  
Dew Point 29 °F    
Average Humidity 39    
Maximum Humidity 63    
Minimum Humidity 15    
Precipitation  
Precipitation 0.00 in 0.01 in 0.15 in (1939)
Month to date precipitation 0.10  
Year to date precipitation 3.43  
Snow  
Snow 0.00 in 0.00 in 0.00 in ()
Month to date snowfall 0.0  
Since 1 July snowfall 0.0  
Since 1 September snowfall 0.0  
Snow Depth -    
Sea Level Pressure  
Sea Level Pressure 29.72 in    
Wind  
Wind Speed 16 mph (SW)    
Max Wind Speed 26 mph    
Max Gust Speed 37 mph    
Visibility 10 miles    
Events      
T = Trace of Precipitation, MM = Missing Value Source: NWS Daily Summary

Daily Weather History Graph

Daily Weather History Graph

Search for Another Location

Airport:

Trip Planner

Search our weather history database for the weather conditions in past years. The results will help you decide how hot, cold, wet, or windy it might be!

Date:

Astronomy

Nov. 09, 2012 Rise Set
Actual Time 6:10 AM PST 4:35 PM PST
Civil Twilight 5:43 AM PST 5:02 PM PST
Nautical Twilight 5:12 AM PST 5:33 PM PST
Astronomical Twilight 4:42 AM PST 6:03 PM PST
Moon 1:22 AM PST (11/9) 1:44 PM PST (11/9)
Length of Visible Light 11h 19m
Length of Day
10h 25m
Waning Crescent, 22% of the Moon is Illuminated
Nov 9
Waning Crescent
Nov 13
New
Nov 20
First Quarter
Nov 28
Full
Dec 6
Last Quarter

Hourly Weather History & Observations

Time (PST) Temp. Windchill Dew Point Humidity Pressure Visibility Wind Dir Wind Speed Gust Speed Precip Events Conditions
12:15 AM 66.2 °F - 44.6 °F 46% 29.70 in 10.0 mi South 15.0 mph 20.7 mph N/A   Overcast
12:35 AM 64.4 °F - 46.4 °F 52% 29.69 in 10.0 mi SW 13.8 mph - N/A   Overcast
12:55 AM 64.4 °F - 46.4 °F 52% 29.69 in 10.0 mi SW 13.8 mph - N/A   Mostly Cloudy
1:15 AM 62.6 °F - 46.4 °F 55% 29.69 in 10.0 mi SSW 11.5 mph - N/A   Scattered Clouds
1:35 AM 62.6 °F - 46.4 °F 55% 29.69 in 10.0 mi SSW 13.8 mph - N/A   Clear
1:55 AM 60.8 °F - 46.4 °F 59% 29.69 in 10.0 mi SSW 11.5 mph - N/A   Clear
2:15 AM 60.8 °F - 46.4 °F 59% 29.69 in 10.0 mi SSW 11.5 mph - N/A   Clear
2:35 AM 59.0 °F - 46.4 °F 63% 29.69 in 10.0 mi SSW 11.5 mph - N/A   Partly Cloudy
2:55 AM 59.0 °F - 46.4 °F 63% 29.69 in 10.0 mi SSW 11.5 mph - N/A   Scattered Clouds
3:15 AM 59.0 °F - 46.4 °F 63% 29.69 in 10.0 mi SW 9.2 mph - N/A   Partly Cloudy
3:55 AM 59.0 °F - 44.6 °F 59% 29.69 in 10.0 mi SW 15.0 mph - N/A   Overcast
4:15 AM 59.0 °F - 44.6 °F 59% 29.69 in 10.0 mi SW 15.0 mph - N/A   Mostly Cloudy
4:35 AM 59.0 °F - 44.6 °F 59% 29.69 in 10.0 mi SW 15.0 mph - N/A   Scattered Clouds
4:55 AM 59.0 °F - 44.6 °F 59% 29.68 in 10.0 mi SW 15.0 mph - N/A   Scattered Clouds
5:15 AM 57.2 °F - 44.6 °F 63% 29.68 in 10.0 mi SW 15.0 mph - N/A   Partly Cloudy
5:35 AM 57.2 °F - 44.6 °F 63% 29.68 in 10.0 mi SW 11.5 mph - N/A   Partly Cloudy
5:55 AM 57.2 °F - 44.6 °F 63% 29.68 in 10.0 mi SSW 10.4 mph - N/A   Clear
6:15 AM 57.2 °F - 44.6 °F 63% 29.68 in 10.0 mi SW 9.2 mph - N/A   Partly Cloudy
6:55 AM 57.2 °F - 44.6 °F 63% 29.69 in 10.0 mi SSW 11.5 mph - N/A   Overcast
7:15 AM 57.2 °F - 42.8 °F 59% 29.70 in 10.0 mi SSW 11.5 mph - N/A   Overcast
7:35 AM 57.2 °F - 42.8 °F 59% 29.71 in 10.0 mi SSW 13.8 mph 18.4 mph N/A   Overcast
7:55 AM 57.2 °F - 41.0 °F 55% 29.72 in 10.0 mi SW 16.1 mph 19.6 mph N/A   Overcast
8:15 AM 57.2 °F - 39.2 °F 51% 29.72 in 10.0 mi SW 13.8 mph - N/A   Overcast
8:35 AM 57.2 °F - 39.2 °F 51% 29.72 in 10.0 mi SSW 18.4 mph - N/A   Overcast
8:55 AM 55.4 °F - 37.4 °F 51% 29.73 in 10.0 mi SSW 18.4 mph - N/A   Overcast
9:15 AM 55.4 °F - 35.6 °F 47% 29.74 in 10.0 mi SSW 20.7 mph 25.3 mph N/A   Overcast
9:35 AM 55.4 °F - 35.6 °F 47% 29.74 in 10.0 mi SSW 25.3 mph 31.1 mph N/A   Overcast
9:55 AM 55.4 °F - 32.0 °F 41% 29.75 in 10.0 mi SSW 20.7 mph 29.9 mph N/A   Overcast
10:15 AM 55.4 °F - 32.0 °F 41% 29.75 in 10.0 mi SW 23.0 mph 28.8 mph N/A   Overcast
10:35 AM 55.4 °F - 32.0 °F 41% 29.75 in 8.0 mi SW 18.4 mph 32.2 mph N/A   Overcast
10:55 AM 57.2 °F - 30.2 °F 36% 29.74 in 7.0 mi SW 26.5 mph 33.4 mph N/A   Overcast
11:15 AM 57.2 °F - 30.2 °F 36% 29.73 in 7.0 mi SW 25.3 mph 36.8 mph N/A   Overcast
11:35 AM 59.0 °F - 28.4 °F 31% 29.72 in 10.0 mi SW 21.9 mph 29.9 mph N/A   Overcast
11:55 AM 59.0 °F - 26.6 °F 29% 29.71 in 10.0 mi SW 24.2 mph 29.9 mph N/A   Mostly Cloudy
12:15 PM 57.2 °F - 26.6 °F 31% 29.71 in 10.0 mi SSW 24.2 mph 32.2 mph N/A   Mostly Cloudy
12:35 PM 59.0 °F - 24.8 °F 27% 29.71 in 10.0 mi SSW 23.0 mph 31.1 mph N/A   Overcast
12:55 PM 59.0 °F - 23.0 °F 25% 29.71 in 10.0 mi SSW 23.0 mph 35.7 mph N/A   Mostly Cloudy
1:15 PM 60.8 °F - 23.0 °F 23% 29.71 in 10.0 mi SW 21.9 mph 29.9 mph N/A   Mostly Cloudy
1:35 PM 60.8 °F - 21.2 °F 22% 29.70 in 10.0 mi SW 17.3 mph 27.6 mph N/A   Scattered Clouds
1:55 PM 60.8 °F - 19.4 °F 20% 29.70 in 10.0 mi SSW 18.4 mph - N/A   Clear
2:15 PM 60.8 °F - 19.4 °F 20% 29.69 in 10.0 mi SSW 23.0 mph 27.6 mph N/A   Clear
2:35 PM 60.8 °F - 14.0 °F 16% 29.70 in 10.0 mi SW 18.4 mph 27.6 mph N/A   Clear
2:55 PM 59.0 °F - 14.0 °F 17% 29.70 in 10.0 mi SW 15.0 mph 21.9 mph N/A   Clear
3:15 PM 59.0 °F - 10.4 °F 15% 29.70 in 10.0 mi WSW 23.0 mph 28.8 mph N/A   Clear
3:35 PM 59.0 °F - 10.4 °F 15% 29.71 in 10.0 mi WSW 18.4 mph 27.6 mph N/A   Clear
3:55 PM 57.2 °F - 10.4 °F 16% 29.71 in 10.0 mi WSW 17.3 mph 21.9 mph N/A   Clear
4:15 PM 57.2 °F - 10.4 °F 16% 29.71 in 10.0 mi SW 19.6 mph 24.2 mph N/A   Clear
4:35 PM 55.4 °F - 10.4 °F 17% 29.71 in 10.0 mi WSW 15.0 mph - N/A   Clear
4:55 PM 55.4 °F - 14.0 °F 20% 29.71 in 10.0 mi WSW 16.1 mph - N/A   Clear
5:15 PM 53.6 °F - 14.0 °F 21% 29.71 in 10.0 mi SW 12.7 mph - N/A   Clear
5:35 PM 53.6 °F - 10.4 °F 18% 29.72 in 10.0 mi SW 21.9 mph 25.3 mph N/A   Clear
5:55 PM 53.6 °F - 10.4 °F 18% 29.73 in 10.0 mi SW 19.6 mph 25.3 mph N/A   Clear
6:15 PM 53.6 °F - 10.4 °F 18% 29.73 in 10.0 mi SW 23.0 mph 27.6 mph N/A   Clear
6:35 PM 53.6 °F - 14.0 °F 21% 29.73 in 10.0 mi WSW 24.2 mph - N/A   Clear
6:55 PM 51.8 °F - 15.8 °F 24% 29.73 in 10.0 mi SW 18.4 mph - N/A   Clear
7:15 PM 50.0 °F - 15.8 °F 26% 29.74 in 10.0 mi SW 21.9 mph 28.8 mph N/A   Clear
7:35 PM 50.0 °F - 14.0 °F 24% 29.74 in 10.0 mi SW 20.7 mph 27.6 mph N/A   Clear
7:55 PM 50.0 °F - 15.8 °F 26% 29.74 in 10.0 mi SW 24.2 mph 31.1 mph N/A   Clear
8:15 PM 50.0 °F - 15.8 °F 26% 29.74 in 10.0 mi SW 21.9 mph - N/A   Clear
8:35 PM 50.0 °F - 14.0 °F 24% 29.74 in 10.0 mi WSW 24.2 mph 31.1 mph N/A   Clear
8:55 PM 50.0 °F - 15.8 °F 26% 29.76 in 10.0 mi WSW 23.0 mph 28.8 mph N/A   Clear
9:15 PM 48.2 °F - 17.6 °F 30% 29.77 in 10.0 mi WSW 18.4 mph 25.3 mph N/A   Clear
9:35 PM 48.2 °F - 17.6 °F 30% 29.77 in 10.0 mi WSW 17.3 mph 21.9 mph N/A   Clear
9:55 PM 48.2 °F - 17.6 °F 30% 29.77 in 10.0 mi WSW 20.7 mph 27.6 mph N/A   Clear
10:15 PM 48.2 °F - 19.4 °F 32% 29.77 in 10.0 mi WSW 25.3 mph 32.2 mph N/A   Clear
10:35 PM 48.2 °F - 19.4 °F 32% 29.78 in 10.0 mi WSW 20.7 mph 29.9 mph N/A   Clear
10:55 PM 46.4 °F 38.5 °F 19.4 °F 34% 29.79 in 10.0 mi WSW 21.9 mph 27.6 mph N/A   Clear
11:15 PM 46.4 °F 39.2 °F 30.2 °F 53% 29.81 in 10.0 mi NW 18.4 mph 23.0 mph N/A   Clear
11:35 PM 44.6 °F 37.2 °F 28.4 °F 53% 29.80 in 10.0 mi NW 17.3 mph 21.9 mph N/A   Clear
11:55 PM 44.6 °F 38.8 °F 28.4 °F 53% 29.81 in 10.0 mi NW 11.5 mph 21.9 mph N/A   Clear